Hourly Weather Orleans

Today, 1 October, Thursday

Time Temperature Precipitation Wind Pressure Humidity
00:00 +13°C° 0 mm 3 mps 744 mmHg 81%
01:00 +13°C° 0.4 mm 3 mps 744 mmHg 84%
02:00 +13°C° 0.4 mm 4 mps 743 mmHg 87%
03:00 +13°C° 0.4 mm 4 mps 742 mmHg 89%
04:00 +13°C° 1.3 mm 4 mps 742 mmHg 90%
05:00 +13°C° 1.3 mm 5 mps 742 mmHg 91%
06:00 +13°C° 1.3 mm 6 mps 742 mmHg 92%
07:00 +13°C° 0.5 mm 5 mps 742 mmHg 88%
08:00 +14°C° 0.5 mm 5 mps 742 mmHg 84%
09:00 +14°C° 0.5 mm 5 mps 742 mmHg 79%
10:00 +15°C° 0.2 mm 5 mps 742 mmHg 71%
11:00 +16°C° 0.2 mm 5 mps 743 mmHg 63%
12:00 +17°C° 0.2 mm 5 mps 743 mmHg 55%
13:00 +17°C° 0 mm 5 mps 742 mmHg 53%
14:00 +17°C° 0 mm 5 mps 742 mmHg 50%
15:00 +18°C° 0 mm 4 mps 742 mmHg 47%
16:00 +17°C° 0 mm 4 mps 742 mmHg 52%
17:00 +14°C° 0 mm 3 mps 741 mmHg 58%
18:00 +13°C° 0 mm 3 mps 741 mmHg 63%
19:00 +13°C° 0 mm 3 mps 741 mmHg 67%
20:00 +12°C° 0 mm 3 mps 740 mmHg 72%
21:00 +12°C° 0 mm 3 mps 740 mmHg 76%
22:00 +11°C° 0 mm 3 mps 739 mmHg 80%
23:00 +11°C° 0 mm 3 mps 737 mmHg 83%

Tomorrow, 2 October, Friday

Time Temperature Precipitation Wind Pressure Humidity
00:00 +10°C° 0 mm 3 mps 736 mmHg 86%
01:00 +11°C° 0.3 mm 4 mps 735 mmHg 86%
02:00 +10°C° 0.3 mm 5 mps 733 mmHg 86%
03:00 +10°C° 0.3 mm 5 mps 732 mmHg 86%
04:00 +10°C° 2 mm 6 mps 731 mmHg 88%
05:00 +10°C° 2 mm 7 mps 730 mmHg 89%
06:00 +10°C° 2 mm 8 mps 729 mmHg 91%
07:00 +11°C° 0.3 mm 6 mps 730 mmHg 85%
08:00 +13°C° 0.3 mm 5 mps 730 mmHg 80%
09:00 +14°C° 0.3 mm 4 mps 730 mmHg 75%
10:00 +15°C° 0.2 mm 4 mps 730 mmHg 72%
11:00 +15°C° 0.2 mm 4 mps 730 mmHg 68%
12:00 +17°C° 0.2 mm 3 mps 730 mmHg 65%
13:00 +16°C° 0.7 mm 3 mps 730 mmHg 70%
14:00 +15°C° 0.7 mm 2 mps 730 mmHg 76%
15:00 +14°C° 0.7 mm 2 mps 730 mmHg 82%
16:00 +14°C° 1.4 mm 1 mps 730 mmHg 85%
17:00 +13°C° 1.4 mm 1 mps 730 mmHg 88%
18:00 +12°C° 1.4 mm 1 mps 730 mmHg 92%
19:00 +12°C° 0.7 mm 1 mps 730 mmHg 92%
20:00 +12°C° 0.7 mm 1 mps 730 mmHg 92%
21:00 +12°C° 0.7 mm 2 mps 730 mmHg 93%
22:00 +11°C° 1 mm 3 mps 729 mmHg 92%
23:00 +11°C° 1 mm 4 mps 729 mmHg 91%

Day after tomorrow, 3 October, Saturday

Time Temperature Precipitation Wind Pressure Humidity
00:00 +9°C° 1 mm 5 mps 729 mmHg 90%
01:00 +10°C° 0.5 mm 4 mps 729 mmHg 90%
02:00 +10°C° 0.5 mm 4 mps 729 mmHg 89%
03:00 +10°C° 0.5 mm 3 mps 729 mmHg 89%
04:00 +10°C° 0.1 mm 3 mps 729 mmHg 89%
05:00 +10°C° 0.1 mm 3 mps 729 mmHg 90%
06:00 +9°C° 0.1 mm 2 mps 729 mmHg 90%
07:00 +10°C° 0 mm 3 mps 730 mmHg 84%
08:00 +11°C° 0 mm 3 mps 730 mmHg 78%
09:00 +12°C° 0 mm 4 mps 730 mmHg 72%
10:00 +13°C° 0 mm 4 mps 730 mmHg 67%
11:00 +14°C° 0 mm 4 mps 730 mmHg 63%
12:00 +15°C° 0 mm 4 mps 729 mmHg 58%
13:00 +16°C° 0.1 mm 3 mps 729 mmHg 57%
14:00 +16°C° 0.1 mm 2 mps 729 mmHg 57%
15:00 +16°C° 0.1 mm 2 mps 728 mmHg 56%
16:00 +15°C° 0.1 mm 2 mps 728 mmHg 62%
17:00 +14°C° 0.1 mm 2 mps 728 mmHg 68%
18:00 +12°C° 0.1 mm 3 mps 728 mmHg 74%
19:00 +11°C° 0.1 mm 3 mps 729 mmHg 77%
20:00 +11°C° 0.1 mm 4 mps 729 mmHg 81%
21:00 +9°C° 0.1 mm 5 mps 729 mmHg 84%
22:00 +10°C° 1.4 mm 6 mps 730 mmHg 85%
23:00 +10°C° 1.4 mm 7 mps 730 mmHg 85%

4 October, Sunday

Time Temperature Precipitation Wind Pressure Humidity
00:00 +10°C° 1.4 mm 8 mps 731 mmHg 85%
01:00 +9°C° 0 mm 8 mps 732 mmHg 85%
02:00 +8°C° 0 mm 7 mps 732 mmHg 85%
03:00 +6°C° 0 mm 7 mps 733 mmHg 84%
04:00 +7°C° 0 mm 6 mps 733 mmHg 85%
05:00 +5°C° 0 mm 6 mps 734 mmHg 85%
06:00 +6°C° 0 mm 5 mps 734 mmHg 86%
07:00 +7°C° 0 mm 5 mps 734 mmHg 82%
08:00 +9°C° 0 mm 5 mps 734 mmHg 78%
09:00 +10°C° 0 mm 6 mps 735 mmHg 73%
10:00 +11°C° 0.1 mm 6 mps 735 mmHg 70%
11:00 +13°C° 0.1 mm 6 mps 735 mmHg 66%
12:00 +14°C° 0.1 mm 6 mps 735 mmHg 62%
13:00 +14°C° 0.4 mm 6 mps 735 mmHg 62%
14:00 +15°C° 0.4 mm 6 mps 735 mmHg 61%
15:00 +15°C° 0.4 mm 6 mps 735 mmHg 60%
16:00 +14°C° 0.3 mm 5 mps 735 mmHg 67%
17:00 +12°C° 0.3 mm 5 mps 735 mmHg 73%
18:00 +11°C° 0.3 mm 4 mps 736 mmHg 80%
19:00 +11°C° 0 mm 4 mps 736 mmHg 81%
20:00 +10°C° 0 mm 4 mps 736 mmHg 83%
21:00 +10°C° 0 mm 4 mps 737 mmHg 84%
22:00 +10°C° 0 mm 4 mps 737 mmHg 83%
23:00 +8°C° 0 mm 5 mps 737 mmHg 82%

5 October, Monday

Time Temperature Precipitation Wind Pressure Humidity
00:00 +8°C° 0 mm 5 mps 737 mmHg 81%
01:00 +8°C° 0 mm 6 mps 738 mmHg 81%
02:00 +8°C° 0 mm 6 mps 738 mmHg 81%
03:00 +9°C° 0 mm 6 mps 738 mmHg 81%
04:00 +9°C° 0.1 mm 6 mps 738 mmHg 83%
05:00 +9°C° 0.1 mm 7 mps 738 mmHg 85%
06:00 +9°C° 0.1 mm 7 mps 739 mmHg 86%
07:00 +9°C° 0.7 mm 7 mps 739 mmHg 87%
08:00 +9°C° 0.7 mm 7 mps 739 mmHg 87%
09:00 +9°C° 0.7 mm 7 mps 739 mmHg 87%
10:00 +9°C° 1.1 mm 8 mps 740 mmHg 87%
11:00 +9°C° 1.1 mm 8 mps 740 mmHg 86%
12:00 +8°C° 1.1 mm 9 mps 740 mmHg 86%
13:00 +10°C° 1.3 mm 9 mps 740 mmHg 87%
14:00 +10°C° 1.3 mm 9 mps 740 mmHg 88%
15:00 +10°C° 1.3 mm 9 mps 741 mmHg 89%
16:00 +10°C° 0.6 mm 8 mps 741 mmHg 88%
17:00 +10°C° 0.6 mm 8 mps 741 mmHg 87%
18:00 +11°C° 0.6 mm 7 mps 742 mmHg 86%
19:00 +10°C° 0.3 mm 7 mps 742 mmHg 86%
20:00 +10°C° 0.3 mm 7 mps 743 mmHg 85%
21:00 +10°C° 0.3 mm 7 mps 743 mmHg 85%
22:00 +10°C° 0 mm 7 mps 744 mmHg 85%
23:00 +9°C° 0 mm 7 mps 744 mmHg 84%

6 October, Tuesday

Time Temperature Precipitation Wind Pressure Humidity
00:00 +9°C° 0 mm 7 mps 744 mmHg 84%
01:00 +9°C° 0 mm 6 mps 744 mmHg 84%
02:00 +9°C° 0 mm 6 mps 744 mmHg 83%
03:00 +8°C° 0 mm 6 mps 744 mmHg 83%
04:00 +8°C° 0 mm 5 mps 744 mmHg 84%
05:00 +7°C° 0 mm 5 mps 745 mmHg 86%
06:00 +7°C° 0 mm 4 mps 745 mmHg 87%
07:00 +8°C° 0 mm 4 mps 745 mmHg 83%
08:00 +10°C° 0 mm 5 mps 745 mmHg 79%
09:00 +12°C° 0 mm 5 mps 745 mmHg 75%
10:00 +13°C° 0 mm 5 mps 745 mmHg 74%
11:00 +13°C° 0 mm 5 mps 744 mmHg 73%
12:00 +14°C° 0 mm 5 mps 744 mmHg 73%
13:00 +13°C° 0.2 mm 4 mps 744 mmHg 78%
14:00 +13°C° 0.2 mm 4 mps 743 mmHg 82%
15:00 +13°C° 0.2 mm 4 mps 743 mmHg 87%
16:00 +13°C° 0.1 mm 3 mps 743 mmHg 89%
17:00 +12°C° 0.1 mm 3 mps 743 mmHg 92%
18:00 +12°C° 0.1 mm 3 mps 742 mmHg 94%
19:00 +12°C° 0.2 mm 3 mps 742 mmHg 94%
20:00 +12°C° 0.2 mm 3 mps 742 mmHg 95%
21:00 +12°C° 0.2 mm 3 mps 742 mmHg 96%
22:00 +12°C° 0.2 mm 4 mps 742 mmHg 94%
23:00 +13°C° 0.2 mm 5 mps 742 mmHg 92%
Show more

We Need Your Consent

Meteoprog and our Service Providers may store and access personal data such as cookies, device identifiers or other similar technologies on your device and process such data to personalise content and ads, as well as provide social media features and to analyse the traffic.

  • Store and/or access information on your device

    Cookies, device identifiers or other information can be stored or accessed on your device for the purposes indicated above.

  • Personalised ads and content, ad and content measurement, audience insights, and products development

    Ads and content can be personalised based on a profile. More data can be added to better personalise ads and content. Ad and content performance can be measured. Insights about the audience who saw the ads and content can be derived. Such data can be used to develop or improve user’s experience, systems and software.

By clicking ‘I Agree’ you will allow the use of indicated cookies, device identifiers, web beacons or other similar technologies. Your settings can be changed in the browser on your device.

For certain purposes, legitimate interests may be relied on, rather than consent. You can read more about this in our Privacy and Cookie Policy.